Simultaneous Nadir Overpasses (SNOs) Predictions

Prediction of SNOs near equator between AQUA and NPP Satellite Orbit:

Table of predicted SNOs near equator for the next 14.0 days since TLE Epoch: 10/13/2013
Index Date (AQUA) Time (AQUA) AQUA Lat,Lon Date (NPP) Time (NPP) NPP Lat,Lon Distance(km) Time Diff (sec)
1 10/14/2013 23:21:16 10.60,-147.97 10/14/2013 23:11:17 10.60,-147.98 1.21 599
2 10/15/2013 00:08:12 -1.76, 21.58 10/14/2013 23:59:26 -1.70, 21.36 25.07 526
3 10/15/2013 00:56:26 -2.88,-169.81 10/15/2013 00:48:56 -2.98,-170.30 54.73 450
4 10/15/2013 01:44:34 7.36, -1.20 10/15/2013 01:38:19 7.52, -1.94 83.61 375
5 10/17/2013 15:35:59 4.47, -30.76 10/17/2013 15:26:28 4.44, -30.81 6.60 571
6 10/17/2013 16:24:07 0.01, 137.85 10/17/2013 16:15:51 0.10, 137.54 36.01 496
7 10/17/2013 17:12:21 -4.65, -53.54 10/17/2013 17:05:21 -4.78, -54.11 65.43 420
8 10/17/2013 18:00:28 9.20, 115.09 10/17/2013 17:54:43 9.39, 114.26 93.82 345
9 10/20/2013 07:09:56 -29.95, -88.35 10/20/2013 06:59:56 -30.27, -88.62 44.37 600
10 10/20/2013 07:51:53 2.61, 85.53 10/20/2013 07:42:53 2.58, 85.38 17.30 540
11 10/20/2013 08:40:00 1.94,-105.84 10/20/2013 08:32:15 2.02,-106.25 46.80 465
12 10/20/2013 09:28:15 -6.51, 62.76 10/20/2013 09:21:46 -6.64, 62.08 76.12 389
13 10/22/2013 23:20:00 -7.04, 32.86 10/22/2013 23:10:16 -7.05, 32.86 1.00 584
14 10/23/2013 00:07:46 0.72,-158.16 10/22/2013 23:59:17 0.67,-158.42 28.42 509
15 10/23/2013 00:55:54 3.77, 10.45 10/23/2013 00:48:40 3.88, 9.94 57.90 434
16 10/23/2013 01:44:08 -8.40, 179.06 10/23/2013 01:38:10 -8.55, 178.29 86.74 358
17 10/25/2013 15:35:23 -3.37, 149.55 10/25/2013 15:26:10 -3.37, 149.46 10.21 553
18 10/25/2013 16:23:39 -1.14, -41.87 10/25/2013 16:15:41 -1.24, -42.21 39.81 478
19 10/25/2013 17:11:45 5.75, 126.77 10/25/2013 17:05:03 5.85, 126.16 68.99 402
20 10/25/2013 18:00:01 -10.26, -64.63 10/25/2013 17:54:34 -10.46, -65.50 97.36 327




NCC Satellite Simultaneous Nadir Overpasses (SNOs) Prediction Service
